Location: Newark
(0.5300°S, 127.4800°E)
Time: 01:13:36
(UTC+00:00)

ISS - Visible Passes

Search period start: 19 August 2019 00:00
Search period end: 29 August 2019 00:00
Orbit: 410 x 420 km, 51.6° (Epoch: 19 August)

Date Brightness Start Highest point End Pass type
(mag) Time Alt. Az. Time Alt. Az. Time Alt. Az.
19 Aug -1.1 19:48:45 15° SE 19:49:05 15° SE 19:51:07 10° E visible
20 Aug -3.1 20:35:50 28° W 20:36:55 37° NW 20:40:01 10° NNE visible
21 Aug -1.8 19:49:57 26° NE 19:49:57 26° NE 19:51:32 10° NE visible
